[[{"header":{"parameterUnit":"m.s-1","parameterCategory":2,"la1":30.2991,"la2":30.254,"lo1":-89.0895,"lo2":-89.0444,"dy":0.0017,"dx":0.0017,"nx":28,"ny":28,"refTime":"2023-10-29T09:00:00:Z","depth":"0","parameterNumber":2,"parameterNumberName":"U-component_of_CURRENTS"},"data":[0,0,0,0,0,0,0,0,0,0,0,0,0,0,0,0,0,0,0,0,0,0,0,0,0,0,0,0,0,0,0,0,0,0,0,0,0,0,0,0,0,0,0,0,0,0,0,0,0,0,0,0,0,0,0,0,0,0,0.2011,0.2012,0,0.2093,0.2094,0.2095,0.2111,0.2111,0.211,0.2109,0.216,0.2161,0.2163,0,0,0,0,0,0,0,0,0,0,0,0,0,0.1918,0.1919,0.2011,0.2012,0.2013,0.2093,0.2094,0.2095,0.2112,0.2111,0.211,0.2109,0.2159,0.2161,0.2164,0,0,0,0,0,0,0,0,0,0,0,0,0,0.1976,0.192,0.2011,0.203,0.2033,0.2093,0.2094,0.2096,0.2112,0.2111,0.211,0.2109,0.2158,0.2161,0.2164,0.2203,0,0,0.2173,0.2174,0,0,0,0,0,0,0,0,0.1972,0.1979,0.2026,0.2029,0.2032,0.209,0.208,0.213,0.2112,0.2083,0.2109,0.2108,0.2134,0.2139,0.2158,0.2206,0.2208,0.2173,0.2175,0.2176,0.2177,0,0,0,0,0,0,0,0.1968,0.1976,0.2044,0.2027,0.2031,0.2052,0.2058,0.209,0.2113,0.2085,0.2086,0.2094,0.2135,0.2155,0.2159,0.2209,0.2173,0.2176,0.2178,0.2179,0.2258,0.2258,0,0,0,0,0,0,0.1955,0.1972,0.2042,0.2047,0.1998,0.2054,0.2061,0.2073,0.2113,0.2119,0.2095,0.2095,0.215,0.2156,0.2161,0.2201,0.2176,0.2179,0.2181,0.2257,0.2258,0.2258,0,0,0,0,0,0,0.1953,0.1961,0.2038,0.201,0.2021,0.2056,0.207,0.2075,0.2092,0.2121,0.2126,0.2105,0.215,0.2157,0.2182,0.2203,0.2181,0.2183,0.2257,0.2258,0.2258,0.2287,0,0,0,0,0,0,0.195,0.196,0.1969,0.201,0.2022,0.2077,0.2071,0.2078,0.2098,0.2099,0.2132,0.2135,0.215,0.2177,0.2184,0.2207,0.2186,0.2257,0.2257,0.2258,0.2286,0.2289,0.2291,0,0,0,0,0,0.1947,0.1969,0.1969,0.1978,0.2032,0.2078,0.2088,0.2109,0.21,0.2117,0.2127,0.2134,0.2185,0.218,0.2189,0.2212,0.2256,0.2257,0.2258,0.2285,0.2288,0.2291,0,0,0,0,0,0,0.1948,0.1974,0.1974,0.2007,0.2038,0.2081,0.2105,0.2109,0.2134,0.2132,0.2145,0.2151,0.2179,0.2188,0.2182,0.2233,0.222,0.2223,0.2238,0.2241,0.2243,0.2246,0.2188,0,0,0,0,0,0.1947,0.1962,0.1995,0.2022,0.2039,0.2068,0.2089,0.2102,0.2127,0.2137,0.2156,0.2172,0.2192,0.2208,0.2228,0.2265,0.228,0.2282,0.2284,0.2286,0.2292,0.2292,0.2296,0.226,0.226,0.226,0,0,0.1953,0.1972,0.198,0.2022,0.2049,0.2083,0.2079,0.2116,0.2142,0.214,0.2179,0.2184,0.2201,0.2236,0.225,0.2247,0.2316,0.2287,0.2289,0.2294,0.2294,0.2297,0.23,0.2261,0.2261,0.2261,0,0,0.1979,0.1993,0.2014,0.204,0.2078,0.21,0.2107,0.2147,0.2163,0.2195,0.2195,0.2208,0.2247,0.2264,0.2275,0.2304,0.2324,0.231,0.2336,0.2336,0.2339,0.2341,0.2417,0.2426,0.2316,0.2317,0.2317,0,0.1988,0.2018,0.2031,0.2064,0.2089,0.2104,0.214,0.2166,0.2205,0.2216,0.2207,0.2243,0.226,0.2294,0.2308,0.2312,0.2336,0.2325,0.234,0.2342,0.2344,0.2421,0.243,0.2318,0.2318,0.2318,0.2318,0,0.2031,0.2054,0.2076,0.2113,0.2142,0.2179,0.221,0.2234,0.2242,0.2256,0.228,0.2294,0.2312,0.2321,0.233,0.2359,0.2382,0.2339,0.2333,0.235,0.243,0.2439,0.232,0.232,0.2319,0.2319,0,0,0.2057,0.2095,0.2102,0.2116,0.217,0.2195,0.2242,0.2282,0.2297,0.2317,0.2337,0.2367,0.2357,0.2369,0.2375,0.2383,0.2442,0.2376,0.2375,0.2456,0.2501,0.273,0.2762,0.2393,0.2393,0.2393,0.2571,0,0.209,0.2138,0.2156,0.2202,0.2231,0.2256,0.2291,0.2321,0.2342,0.2365,0.2368,0.2387,0.2381,0.2388,0.2396,0.2431,0.2459,0.2402,0.2469,0.2473,0.2676,0.2777,0.2753,0.2926,0.258,0.2581,0.2582,0,0.2132,0.2155,0.22,0.223,0.2245,0.2271,0.2317,0.235,0.2383,0.2397,0.2411,0.2413,0.2463,0.242,0.2501,0.2466,0.2491,0.2506,0.2512,0.2718,0.2718,0.2842,0.2956,0.2845,0.2597,0.2596,0.2595,0,0.2136,0.2186,0.2213,0.2229,0.227,0.2289,0.2312,0.2353,0.2388,0.2417,0.2453,0.247,0.2532,0.2521,0.2629,0.2542,0.2733,0.2604,0.2836,0.2854,0.2848,0.2866,0.2863,0.2632,0.2631,0.2631,0.263,0,0.2165,0.2184,0.2209,0.2224,0.2252,0.2281,0.2315,0.2344,0.2394,0.2463,0.2467,0.256,0.2555,0.2678,0.2675,0.2883,0.2786,0.2893,0.2922,0.2869,0.2886,0.28,0.2733,0.2637,0.2636,0.2635,0.2634,0,0.216,0.2181,0.2208,0.2242,0.2253,0.2269,0.2325,0.2358,0.2413,0.2512,0.2533,0.2667,0.2875,0.294,0.3018,0.3032,0.3075,0.3204,0.3213,0.3243,0.3319,0.3257,0.321,0.3107,0.3441,0.3448,0.3454,0,0.2156,0.217,0.2208,0.2223,0.2236,0.2265,0.2299,0.2356,0.242,0.2611,0.2684,0.2921,0.313,0.3417,0.3499,0.3624,0.3388,0.3641,0.3455,0.3394,0.3338,0.311,0.3002,0.3456,0.3461,0.3465,0.3469,0,0.2146,0.2158,0.2177,0.2215,0.2248,0.2285,0.2351,0.2407,0.2525,0.2661,0.2912,0.3092,0.3465,0.3659,0.3897,0.392,0.3499,0.3742,0.3605,0.3343,0.3153,0.3046,0.3317,0.3508,0.3504,0.3501,0.3499,0.3497,0.2132,0.2146,0.2178,0.2215,0.2255,0.2318,0.2355,0.2471,0.2615,0.2831,0.3036,0.3318,0.3632,0.3999,0.402,0.4036,0.3866,0.3868,0.3801,0.3577,0.3461,0.3922,0.4196,0.4196,0.4196,0.4196,0.4196,0,0.2145,0.2163,0.2183,0.2237,0.2286,0.2314,0.2407,0.2453,0.2644,0.2893,0.3134,0.3527,0.3776,0.3942,0.4123,0.4044,0.3723,0.3926,0.3475,0.3362,0.372,0.3707,0.3976,0.3976,0.3976,0.3976,0.3976,0.3976,0.2155,0.2187,0.2204,0.2269,0.2308,0.2363,0.2419,0.2504,0.2648,0.2936,0.3183,0.3405,0.3718,0.3998,0.3994,0.3913,0.3515,0.3497,0.3354,0.3514,0.3494,0.3476,0.3442,0.3651,0.3651,0.2822,0.2816,0.2812]},{"header":{"parameterUnit":"m.s-1","parameterCategory":2,"la1":30.2991,"la2":30.254,"lo1":-89.0895,"lo2":-89.0444,"dy":0.0017,"dx":0.0017,"nx":28,"ny":28,"refTime":"2023-10-29T09:00:00:Z","depth":"0","parameterNumber":3,"parameterNumberName":"V-component_of_CURRENTS"},"data":[0,0,0,0,0,0,0,0,0,0,0,0,0,0,0,0,0,0,0,0,0,0,0,0,0,0,0,0,0,0,0,0,0,0,0,0,0,0,0,0,0,0,0,0,0,0,0,0,0,0,0,0,0,0,0,0,0,0,-0.0897,-0.0898,0,-0.0987,-0.0988,-0.0989,-0.1053,-0.1054,-0.1054,-0.1055,-0.1086,-0.1086,-0.1087,0,0,0,0,0,0,0,0,0,0,0,0,0,-0.0817,-0.0818,-0.0897,-0.0898,-0.09,-0.0987,-0.0988,-0.0989,-0.1053,-0.1054,-0.1054,-0.1055,-0.1086,-0.1086,-0.1087,0,0,0,0,0,0,0,0,0,0,0,0,0,-0.0873,-0.0818,-0.0897,-0.0942,-0.0947,-0.0986,-0.0988,-0.0989,-0.1053,-0.1054,-0.1055,-0.1055,-0.1086,-0.1086,-0.1087,-0.1072,0,0,-0.1088,-0.1088,0,0,0,0,0,0,0,0,-0.087,-0.0876,-0.0935,-0.0939,-0.0945,-0.101,-0.0971,-0.1014,-0.1053,-0.1012,-0.1055,-0.1056,-0.1055,-0.1058,-0.1073,-0.1074,-0.1075,-0.1088,-0.1088,-0.1088,-0.1089,0,0,0,0,0,0,0,-0.0866,-0.0873,-0.0932,-0.0936,-0.0942,-0.097,-0.0979,-0.098,-0.1026,-0.1016,-0.1021,-0.1031,-0.1057,-0.1072,-0.1074,-0.1076,-0.1088,-0.1088,-0.1089,-0.1089,-0.106,-0.1059,0,0,0,0,0,0,-0.0853,-0.0869,-0.093,-0.0935,-0.0909,-0.0971,-0.098,-0.0988,-0.1028,-0.1035,-0.103,-0.1034,-0.1071,-0.1073,-0.1075,-0.1059,-0.1088,-0.1089,-0.1089,-0.1061,-0.106,-0.1058,0,0,0,0,0,0,-0.0851,-0.0857,-0.0926,-0.0904,-0.0915,-0.0971,-0.0979,-0.0989,-0.1002,-0.1039,-0.1046,-0.1032,-0.1072,-0.1075,-0.107,-0.1061,-0.1089,-0.109,-0.1062,-0.106,-0.1059,-0.1028,0,0,0,0,0,0,-0.0848,-0.0856,-0.0847,-0.0903,-0.0916,-0.0933,-0.0979,-0.099,-0.1007,-0.1012,-0.1042,-0.1047,-0.1073,-0.1069,-0.107,-0.1062,-0.109,-0.1063,-0.1061,-0.106,-0.103,-0.1025,-0.1021,0,0,0,0,0,-0.0844,-0.0829,-0.0846,-0.0853,-0.0906,-0.0932,-0.0941,-0.0984,-0.1006,-0.1,-0.1025,-0.1046,-0.1057,-0.1068,-0.107,-0.1062,-0.1064,-0.1062,-0.106,-0.1032,-0.1026,-0.1021,0,0,0,0,0,0,-0.0783,-0.0835,-0.0856,-0.0855,-0.0884,-0.0943,-0.0942,-0.0973,-0.099,-0.0994,-0.1032,-0.1037,-0.1033,-0.1042,-0.1053,-0.1046,-0.1064,-0.1062,-0.1042,-0.1037,-0.1033,-0.103,-0.109,0,0,0,0,0,-0.0766,-0.077,-0.0822,-0.0817,-0.0831,-0.0883,-0.0897,-0.0928,-0.0957,-0.0967,-0.0991,-0.101,-0.1024,-0.1026,-0.1037,-0.1026,-0.1044,-0.102,-0.1016,-0.1012,-0.1009,-0.1045,-0.1044,-0.1051,-0.1051,-0.1051,0,0,-0.074,-0.0768,-0.077,-0.0804,-0.0833,-0.0844,-0.0893,-0.0908,-0.0916,-0.0964,-0.0968,-0.0993,-0.1017,-0.1016,-0.1014,-0.1023,-0.1013,-0.1009,-0.1006,-0.1005,-0.1043,-0.1042,-0.1042,-0.1049,-0.1049,-0.105,0,0,-0.0693,-0.0715,-0.0707,-0.073,-0.0768,-0.0801,-0.08,-0.0851,-0.0871,-0.0877,-0.0921,-0.094,-0.0948,-0.0979,-0.0992,-0.0962,-0.0991,-0.0959,-0.0933,-0.0968,-0.0969,-0.0969,-0.0968,-0.0969,-0.0955,-0.0955,-0.0955,0,-0.0657,-0.0663,-0.0704,-0.0707,-0.0721,-0.0777,-0.0773,-0.0798,-0.0839,-0.0851,-0.0865,-0.091,-0.0934,-0.0953,-0.0951,-0.0955,-0.0967,-0.0956,-0.0965,-0.0966,-0.0967,-0.0966,-0.0967,-0.0953,-0.0953,-0.0953,-0.0953,0,-0.0618,-0.062,-0.0614,-0.064,-0.0654,-0.0658,-0.0705,-0.0715,-0.0744,-0.078,-0.0802,-0.0845,-0.0876,-0.0886,-0.0911,-0.093,-0.0931,-0.096,-0.0983,-0.0965,-0.0964,-0.0966,-0.095,-0.0951,-0.0951,-0.0952,0,0,-0.0543,-0.0581,-0.0577,-0.058,-0.0623,-0.0629,-0.0636,-0.0665,-0.0671,-0.0713,-0.0725,-0.0771,-0.0812,-0.0829,-0.0871,-0.0902,-0.0921,-0.093,-0.0933,-0.0936,-0.0971,-0.085,-0.0841,-0.0957,-0.0958,-0.0958,-0.0958,0,-0.0498,-0.0489,-0.0522,-0.0504,-0.0504,-0.0555,-0.0558,-0.059,-0.0623,-0.0645,-0.0708,-0.0729,-0.0786,-0.0798,-0.0846,-0.0901,-0.0928,-0.0916,-0.0981,-0.0982,-0.0885,-0.0841,-0.0761,-0.0744,-0.096,-0.0961,-0.0961,0,-0.0447,-0.0451,-0.043,-0.0448,-0.0452,-0.0447,-0.0467,-0.0477,-0.0529,-0.0555,-0.0605,-0.0659,-0.0711,-0.0761,-0.0855,-0.0844,-0.0903,-0.0948,-0.095,-0.0852,-0.0866,-0.0801,-0.074,-0.0978,-0.0964,-0.0964,-0.0964,0,-0.0374,-0.0381,-0.0362,-0.0369,-0.0398,-0.039,-0.0402,-0.0444,-0.0432,-0.0494,-0.0477,-0.0589,-0.0586,-0.0712,-0.0786,-0.0834,-0.0866,-0.0949,-0.0895,-0.0887,-0.0837,-0.0822,-0.1019,-0.1017,-0.1017,-0.1017,-0.1017,0,-0.0316,-0.0296,-0.0323,-0.0311,-0.0276,-0.0323,-0.029,-0.0322,-0.0339,-0.0275,-0.0417,-0.0356,-0.0571,-0.0608,-0.0746,-0.078,-0.0833,-0.0869,-0.0876,-0.0817,-0.08,-0.1018,-0.1156,-0.1017,-0.1017,-0.1017,-0.1017,0,-0.0234,-0.0258,-0.0229,-0.0245,-0.0239,-0.0209,-0.0191,-0.0159,-0.0192,-0.0106,-0.0105,-0.0166,-0.0187,-0.0373,-0.0525,-0.0654,-0.0843,-0.0758,-0.0644,-0.0635,-0.0828,-0.0964,-0.1096,-0.1201,-0.0734,-0.0731,-0.0728,0,-0.0193,-0.0171,-0.016,-0.012,-0.0118,-0.0084,-0.0043,-0.0076,-0.0011,0.0068,0.015,0.014,0.0238,0.0056,-0.02,-0.0404,-0.0671,-0.0506,-0.0595,-0.0801,-0.0962,-0.1067,-0.1158,-0.0522,-0.0517,-0.0514,-0.0512,0,-0.0103,-0.01,-0.0075,0.0006,0.0061,0.0121,0.0191,0.0272,0.0304,0.0427,0.0638,0.0729,0.0588,0.0458,0.0144,-0.0039,-0.0647,-0.044,-0.0715,-0.0841,-0.0912,-0.1025,-0.0551,-0.0482,-0.0485,-0.0487,-0.0489,-0.049,-0.0022,0.0026,0.0076,0.0164,0.0236,0.037,0.0489,0.061,0.0803,0.1076,0.1089,0.1348,0.101,0.0632,0.0297,-0.0312,-0.0376,-0.0521,-0.0675,-0.0768,-0.0854,-0.0269,-0.0167,-0.0168,-0.0169,-0.017,-0.0171,0,0.0114,0.0166,0.0242,0.0378,0.0523,0.0508,0.0694,0.0863,0.1196,0.146,0.1716,0.1798,0.1349,0.0768,-0.0045,-0.049,-0.0735,-0.0779,-0.0994,-0.1085,-0.0614,-0.0592,-0.0502,-0.0502,-0.0501,-0.0501,-0.0501,-0.0501,0.0197,0.0314,0.0358,0.0631,0.0742,0.0971,0.1112,0.1362,0.1593,0.2043,0.2298,0.2441,0.1993,0.0442,-0.0667,-0.0935,-0.1342,-0.1326,-0.1589,-0.136,-0.1352,-0.1345,-0.1362,-0.1434,-0.1436,-0.2001,-0.2007,-0.2011]}],[{"header":{"parameterUnit":"m.s-1","parameterCategory":2,"la1":30.2991,"la2":30.254,"lo1":-89.0895,"lo2":-89.0444,"dy":0.0017,"dx":0.0017,"nx":28,"ny":28,"refTime":"2023-10-29T09:00:00:Z","depth":"2","parameterNumber":2,"parameterNumberName":"U-component_of_CURRENTS"},"data":[0,0,0,0,0,0,0,0,0,0,0,0,0,0,0,0,0,0,0,0,0,0,0,0,0,0,0,0,0,0,0,0,0,0,0,0,0,0,0,0,0,0,0,0,0,0,0,0,0,0,0,0,0,0,0,0,0,0,0.2119,0.212,0,0.2193,0.2193,0.2194,0.2191,0.219,0.219,0.2189,0.2153,0.2153,0.2152,0,0,0,0,0,0,0,0,0,0,0,0,0,0.2004,0.2005,0.2119,0.212,0.2122,0.2193,0.2193,0.2194,0.2191,0.219,0.2189,0.2189,0.2153,0.2153,0.2152,0,0,0,0,0,0,0,0,0,0,0,0,0,0.2059,0.2006,0.2119,0.2132,0.2135,0.2193,0.2193,0.2194,0.2191,0.219,0.2189,0.2188,0.2153,0.2153,0.2152,0.2167,0,0,0.215,0.215,0,0,0,0,0,0,0,0,0.2055,0.2062,0.2129,0.2131,0.2134,0.2186,0.214,0.2181,0.2191,0.2165,0.2189,0.2188,0.2158,0.2157,0.2167,0.2165,0.2163,0.215,0.215,0.215,0.215,0,0,0,0,0,0,0,0.2052,0.2059,0.2143,0.2131,0.2134,0.2145,0.2151,0.2148,0.2159,0.2167,0.2168,0.2184,0.2157,0.2168,0.2166,0.2163,0.215,0.215,0.2149,0.2149,0.2192,0.2193,0,0,0,0,0,0,0.2052,0.2056,0.2141,0.2146,0.2097,0.2148,0.2154,0.2166,0.2162,0.2163,0.2185,0.2184,0.2169,0.2167,0.2165,0.2196,0.215,0.2149,0.2149,0.219,0.2192,0.2194,0,0,0,0,0,0,0.2049,0.2059,0.2138,0.2106,0.2118,0.2151,0.2164,0.2168,0.2188,0.2178,0.2175,0.2201,0.2169,0.2166,0.2158,0.2193,0.2149,0.2148,0.2189,0.2191,0.2193,0.2248,0,0,0,0,0,0,0.2045,0.2057,0.2072,0.2106,0.212,0.2155,0.2166,0.2171,0.2201,0.22,0.2191,0.2187,0.2168,0.2159,0.2158,0.2192,0.2148,0.2187,0.219,0.2192,0.2244,0.2252,0.2258,0,0,0,0,0,0.2041,0.206,0.2072,0.2083,0.2137,0.2155,0.2161,0.2179,0.2203,0.2197,0.22,0.2187,0.2177,0.2159,0.2157,0.2192,0.2185,0.2189,0.2192,0.2241,0.225,0.2258,0,0,0,0,0,0,0.2012,0.2063,0.2076,0.2109,0.2124,0.2156,0.218,0.2191,0.2196,0.2207,0.2193,0.2188,0.2206,0.2188,0.217,0.2215,0.2185,0.2188,0.2223,0.2232,0.2239,0.2231,0.2147,0,0,0,0,0,0.2017,0.2045,0.208,0.2102,0.2125,0.2158,0.2176,0.2184,0.2196,0.22,0.2203,0.221,0.2221,0.2213,0.2218,0.2228,0.2238,0.2255,0.2262,0.2267,0.2262,0.23,0.231,0.2205,0.2205,0.2205,0,0,0.2012,0.2046,0.2061,0.2099,0.213,0.2166,0.2165,0.2196,0.2222,0.2195,0.2237,0.2237,0.2232,0.225,0.2257,0.2234,0.2311,0.2272,0.2277,0.2268,0.2305,0.2315,0.2324,0.2207,0.2207,0.2206,0,0,0.2016,0.2053,0.208,0.2109,0.2156,0.2176,0.2188,0.2228,0.2243,0.2269,0.2274,0.2283,0.2299,0.2297,0.2301,0.2347,0.2355,0.2364,0.238,0.2419,0.2427,0.2435,0.2494,0.2506,0.2356,0.2356,0.2357,0,0.201,0.2058,0.2084,0.2127,0.2165,0.2188,0.2225,0.2249,0.2274,0.2294,0.2285,0.234,0.2324,0.2357,0.2364,0.2363,0.2393,0.2347,0.2428,0.2435,0.2442,0.25,0.2513,0.2359,0.2359,0.2359,0.2359,0,0.204,0.2088,0.2115,0.2182,0.2207,0.2248,0.2287,0.2316,0.2347,0.2368,0.2412,0.2398,0.2421,0.243,0.2402,0.2452,0.2464,0.2442,0.2404,0.2456,0.2514,0.2527,0.2364,0.2363,0.2362,0.2361,0,0,0.2006,0.2115,0.2128,0.2171,0.225,0.2267,0.2329,0.2376,0.242,0.2446,0.2495,0.2506,0.2504,0.2506,0.2491,0.2502,0.2575,0.2485,0.2486,0.254,0.2686,0.2666,0.2678,0.257,0.2572,0.2574,0.2719,0,0.2028,0.2109,0.2161,0.2237,0.2285,0.2341,0.2388,0.2429,0.2467,0.2516,0.2527,0.256,0.2536,0.2538,0.2558,0.2569,0.2605,0.2539,0.2629,0.2632,0.2605,0.269,0.2496,0.2606,0.2731,0.2733,0.2735,0,0.206,0.21,0.2176,0.2272,0.23,0.2341,0.2423,0.2465,0.2536,0.2564,0.2608,0.2623,0.2658,0.2616,0.2695,0.2658,0.2677,0.2684,0.269,0.2652,0.2634,0.2569,0.2624,0.2755,0.2754,0.2752,0.2751,0,0.2028,0.2129,0.2184,0.2223,0.2316,0.2354,0.2401,0.2474,0.252,0.2585,0.2631,0.2684,0.2722,0.2751,0.2798,0.2743,0.2896,0.2824,0.2838,0.2838,0.2679,0.2662,0.2885,0.2885,0.2885,0.2884,0.2884,0,0.2059,0.2092,0.217,0.2205,0.2247,0.2323,0.2383,0.2438,0.2527,0.26,0.2644,0.2724,0.2754,0.2853,0.2855,0.2923,0.2963,0.2864,0.2876,0.2698,0.2681,0.2796,0.2784,0.289,0.2889,0.2887,0.2886,0,0.2013,0.2084,0.2123,0.2209,0.2241,0.2252,0.2367,0.2413,0.2506,0.2607,0.2633,0.2776,0.2886,0.2951,0.3026,0.3011,0.3054,0.307,0.2876,0.2861,0.2948,0.2937,0.3061,0.3062,0.3062,0.3063,0.3063,0,0.1998,0.2026,0.2098,0.212,0.2157,0.2206,0.2257,0.2368,0.2425,0.2653,0.2699,0.2863,0.2936,0.3077,0.3091,0.3125,0.3134,0.2961,0.2791,0.2968,0.2968,0.2956,0.2945,0.2622,0.2618,0.2616,0.2614,0,0.194,0.1968,0.2,0.2044,0.209,0.2138,0.2223,0.2263,0.2425,0.2504,0.2653,0.2737,0.2934,0.2893,0.2991,0.2973,0.2924,0.2904,0.3168,0.2602,0.2563,0.256,0.2561,0.2589,0.2592,0.2594,0.2595,0.2596,0.1886,0.1871,0.1935,0.1965,0.2015,0.2055,0.2055,0.2153,0.2209,0.2338,0.2518,0.2592,0.2716,0.2724,0.2696,0.2688,0.2839,0.2698,0.2702,0.2709,0.2627,0.2591,0.2609,0.2611,0.2613,0.2615,0.2617,0,0.1811,0.1834,0.1868,0.1889,0.1895,0.1968,0.2028,0.2006,0.2011,0.2199,0.2277,0.2188,0.2237,0.2357,0.232,0.234,0.226,0.2235,0.2112,0.2142,0.2167,0.205,0.1882,0.1879,0.1876,0.1873,0,0,0.1782,0.1773,0.1788,0.177,0.1793,0.176,0.1763,0.1746,0.1827,0.1832,0.1893,0.2146,0.2308,0.2055,0.2058,0.1967,0.2017,0.1892,0.2498,0.2386,0.2406,0.2475,0.2336,0,0,0,0,0]},{"header":{"parameterUnit":"m.s-1","parameterCategory":2,"la1":30.2991,"la2":30.254,"lo1":-89.0895,"lo2":-89.0444,"dy":0.0017,"dx":0.0017,"nx":28,"ny":28,"refTime":"2023-10-29T09:00:00:Z","depth":"2","parameterNumber":3,"parameterNumberName":"V-component_of_CURRENTS"},"data":[0,0,0,0,0,0,0,0,0,0,0,0,0,0,0,0,0,0,0,0,0,0,0,0,0,0,0,0,0,0,0,0,0,0,0,0,0,0,0,0,0,0,0,0,0,0,0,0,0,0,0,0,0,0,0,0,0,0,0.0247,0.0246,0,0.0152,0.0151,0.015,0.0091,0.009,0.009,0.009,-0.0017,-0.0019,-0.0022,0,0,0,0,0,0,0,0,0,0,0,0,0,0.0263,0.0264,0.0247,0.0246,0.0245,0.0153,0.0151,0.015,0.0091,0.009,0.009,0.009,-0.0016,-0.0019,-0.0022,0,0,0,0,0,0,0,0,0,0,0,0,0,0.0221,0.0264,0.0248,0.0205,0.02,0.0153,0.0151,0.015,0.0091,0.009,0.009,0.0089,-0.0015,-0.0019,-0.0023,-0.0037,0,0,-0.0034,-0.0036,0,0,0,0,0,0,0,0,0.0224,0.0221,0.0212,0.0207,0.0202,0.0133,0.0118,0.0087,0.0091,0.0132,0.009,0.0089,0.0033,0.0025,0.0008,-0.0042,-0.0046,-0.0035,-0.0037,-0.0039,-0.004,0,0,0,0,0,0,0,0.0227,0.0224,0.0209,0.0211,0.0205,0.0151,0.0145,0.0111,0.0086,0.0128,0.0124,0.0114,0.003,0.0012,0.0005,-0.0048,-0.0035,-0.0038,-0.004,-0.0042,-0.0201,-0.0203,0,0,0,0,0,0,0.0246,0.0228,0.0213,0.0207,0.0212,0.0152,0.0145,0.0155,0.0086,0.0075,0.0114,0.0111,0.0018,0.0009,0.0001,-0.0083,-0.0039,-0.0042,-0.0044,-0.0199,-0.0201,-0.0204,0,0,0,0,0,0,0.0247,0.0247,0.0216,0.0213,0.0206,0.0153,0.0164,0.0154,0.0122,0.0076,0.0064,0.0092,0.0018,0.0006,-0.0034,-0.0085,-0.0044,-0.0047,-0.0197,-0.02,-0.0203,-0.0211,0,0,0,0,0,0,0.0249,0.0248,0.0248,0.0216,0.0207,0.0199,0.0164,0.0152,0.0118,0.0113,0.0053,0.0043,0.0016,-0.0028,-0.0037,-0.009,-0.005,-0.0194,-0.0198,-0.0202,-0.0208,-0.0213,-0.0218,0,0,0,0,0,0.025,0.025,0.025,0.0247,0.0215,0.02,0.0191,0.0149,0.0117,0.0116,0.0067,0.0044,-0.0059,-0.0031,-0.0042,-0.0097,-0.0193,-0.0197,-0.0201,-0.0205,-0.0212,-0.0218,0,0,0,0,0,0,0.025,0.0244,0.0242,0.024,0.0229,0.019,0.0166,0.0144,0.0102,0.0084,0.004,0.0027,-0.0039,-0.0059,-0.0028,-0.0157,-0.0139,-0.0145,-0.0138,-0.0145,-0.015,-0.0113,-0.0054,0,0,0,0,0,0.0256,0.0264,0.0249,0.0252,0.0239,0.0202,0.0182,0.0163,0.0126,0.0105,0.0053,-0.0008,-0.0065,-0.0093,-0.0142,-0.0193,-0.0196,-0.0244,-0.0249,-0.0253,-0.0233,-0.0285,-0.0292,-0.0218,-0.0218,-0.0218,0,0,0.0257,0.0255,0.0257,0.0253,0.0229,0.021,0.0188,0.0163,0.0136,0.0101,0.0028,-0.0025,-0.0082,-0.015,-0.0183,-0.0172,-0.0277,-0.0258,-0.0261,-0.0239,-0.029,-0.0297,-0.0303,-0.0221,-0.022,-0.022,0,0,0.027,0.026,0.0271,0.0254,0.0231,0.0208,0.0202,0.0154,0.012,0.0066,0.0014,-0.005,-0.0141,-0.0187,-0.0223,-0.0281,-0.0303,-0.0325,-0.032,-0.0372,-0.0378,-0.0383,-0.0388,-0.0393,-0.0327,-0.0327,-0.0327,0,0.0266,0.028,0.0269,0.0263,0.024,0.0206,0.0197,0.0157,0.0099,0.0073,0.0041,-0.0104,-0.0158,-0.0229,-0.0264,-0.0293,-0.0309,-0.0289,-0.0376,-0.0381,-0.0386,-0.039,-0.0396,-0.0328,-0.0328,-0.0328,-0.0328,0,0.0285,0.028,0.0274,0.0261,0.0244,0.0223,0.0179,0.0145,0.0086,0.0043,-0.0045,-0.0121,-0.0195,-0.0251,-0.0279,-0.0356,-0.0351,-0.0375,-0.035,-0.0393,-0.0396,-0.0402,-0.0329,-0.0329,-0.0329,-0.0328,0,0,0.0308,0.0293,0.0287,0.0287,0.0234,0.0232,0.018,0.0141,0.0119,0.002,-0.0018,-0.0153,-0.0194,-0.0235,-0.0294,-0.0349,-0.0411,-0.0379,-0.0381,-0.0365,-0.0498,-0.0459,-0.0461,-0.0459,-0.046,-0.0461,-0.0482,0,0.0319,0.0332,0.0304,0.0292,0.029,0.0235,0.0203,0.0161,0.0104,0.0056,-0.0044,-0.011,-0.019,-0.0225,-0.03,-0.0376,-0.0429,-0.0401,-0.0474,-0.0475,-0.0421,-0.0468,-0.045,-0.0464,-0.0487,-0.0488,-0.0489,0,0.0328,0.0351,0.0352,0.0337,0.0326,0.0299,0.0263,0.0228,0.0155,0.0112,0.0027,-0.0039,-0.0138,-0.0198,-0.0347,-0.0329,-0.0414,-0.0475,-0.0478,-0.0436,-0.0448,-0.043,-0.0474,-0.0498,-0.0497,-0.0497,-0.0496,0,0.0368,0.0363,0.0375,0.0361,0.0343,0.0322,0.0293,0.0239,0.0231,0.0148,0.0144,0.0011,-0.0034,-0.0177,-0.031,-0.0339,-0.0447,-0.0501,-0.0539,-0.0536,-0.0528,-0.0521,-0.0606,-0.0606,-0.0606,-0.0606,-0.0606,0,0.0374,0.0385,0.0396,0.0395,0.042,0.0373,0.0362,0.0327,0.0291,0.0315,0.0174,0.019,-0.0036,-0.0119,-0.027,-0.0399,-0.042,-0.053,-0.0547,-0.053,-0.0523,-0.0559,-0.0554,-0.0606,-0.0606,-0.0606,-0.0606,0,0.0405,0.0402,0.0436,0.0438,0.0431,0.0451,0.042,0.0437,0.0382,0.0418,0.0403,0.0316,0.0217,0.0022,-0.0172,-0.0317,-0.046,-0.0501,-0.0438,-0.0448,-0.0525,-0.052,-0.056,-0.0559,-0.0558,-0.0557,-0.0557,0,0.042,0.0435,0.0475,0.0504,0.0495,0.0503,0.052,0.0483,0.0533,0.0528,0.0591,0.0495,0.0465,0.0197,-0.0072,-0.0317,-0.0373,-0.0451,-0.052,-0.0511,-0.0524,-0.052,-0.0517,-0.0513,-0.0512,-0.0511,-0.0511,0,0.0461,0.0468,0.0505,0.0571,0.0602,0.0652,0.0682,0.0741,0.0746,0.0783,0.0853,0.0815,0.0574,0.0328,-0.0012,-0.0182,-0.042,-0.0441,-0.0466,-0.0517,-0.0467,-0.0479,-0.0477,-0.0504,-0.0505,-0.0505,-0.0505,-0.0506,0.0479,0.0532,0.057,0.0632,0.0696,0.0793,0.084,0.0915,0.1003,0.1077,0.1063,0.1012,0.0717,0.0286,-0.0008,-0.0329,-0.0338,-0.0471,-0.0474,-0.0478,-0.0459,-0.041,-0.043,-0.043,-0.043,-0.043,-0.0431,0,0.0498,0.0553,0.0618,0.071,0.08,0.082,0.0954,0.1019,0.1148,0.1227,0.1249,0.099,0.07,0.0374,-0.0103,-0.0391,-0.0448,-0.0465,-0.0491,-0.0494,-0.0498,-0.0483,-0.0459,-0.0459,-0.046,-0.0461,0,0,0.051,0.0583,0.0628,0.0775,0.0842,0.0976,0.1062,0.1172,0.1258,0.1317,0.1298,0.1217,0.0817,0.0476,0.008,-0.0187,-0.0273,-0.0236,-0.0185,-0.0171,-0.0172,-0.0472,-0.0447,0,0,0,0,0]}],[{"header":{"parameterUnit":"m.s-1","parameterCategory":2,"la1":30.2991,"la2":30.254,"lo1":-89.0895,"lo2":-89.0444,"dy":0.0017,"dx":0.0017,"nx":28,"ny":28,"refTime":"2023-10-29T09:00:00:Z","depth":"4","parameterNumber":2,"parameterNumberName":"U-component_of_CURRENTS"},"data":[0,0,0,0,0,0,0,0,0,0,0,0,0,0,0,0,0,0,0,0,0,0,0,0,0,0,0,0,0,0,0,0,0,0,0,0,0,0,0,0,0,0,0,0,0,0,0,0,0,0,0,0,0,0,0,0,0,0,0.1119,0.1119,0,0.1166,0.1166,0.1167,0.1204,0.1205,0.1206,0.1206,0.1266,0.1267,0.1268,0,0,0,0,0,0,0,0,0,0,0,0,0,0.1039,0.104,0.1119,0.1119,0.112,0.1166,0.1166,0.1167,0.1204,0.1205,0.1206,0.1207,0.1266,0.1267,0.1268,0,0,0,0,0,0,0,0,0,0,0,0,0,0.1075,0.104,0.1118,0.1147,0.1151,0.1166,0.1166,0.1167,0.1204,0.1205,0.1206,0.1207,0.1265,0.1267,0.1268,0.1255,0,0,0.1272,0.1273,0,0,0,0,0,0,0,0,0.1073,0.1077,0.1142,0.1146,0.1149,0.1184,0.116,0.1198,0.1204,0.118,0.1206,0.1208,0.1241,0.1245,0.1246,0.1258,0.126,0.1272,0.1273,0.1274,0.1274,0,0,0,0,0,0,0,0.107,0.1075,0.1134,0.1143,0.1148,0.1151,0.1157,0.1167,0.1201,0.1182,0.1186,0.1197,0.1243,0.1244,0.1247,0.1261,0.1272,0.1274,0.1274,0.1275,0.1366,0.1368,0,0,0,0,0,0,0.1072,0.1073,0.1132,0.1135,0.1117,0.1152,0.1159,0.1168,0.1201,0.1208,0.1196,0.1198,0.1241,0.1246,0.125,0.1323,0.1274,0.1275,0.1276,0.1365,0.1366,0.1368,0,0,0,0,0,0,0.107,0.1077,0.113,0.1108,0.1116,0.1153,0.1163,0.1169,0.1199,0.1212,0.1219,0.1224,0.1242,0.1248,0.1292,0.1322,0.1276,0.1277,0.1363,0.1365,0.1367,0.1413,0,0,0,0,0,0,0.1067,0.1076,0.1093,0.1108,0.1117,0.1158,0.1163,0.1169,0.1205,0.1209,0.1238,0.1243,0.1244,0.129,0.1293,0.1323,0.1278,0.1361,0.1364,0.1367,0.1409,0.1416,0.1423,0,0,0,0,0,0.1064,0.1081,0.1093,0.1101,0.1137,0.1159,0.1164,0.1191,0.1205,0.1221,0.125,0.1244,0.1312,0.1293,0.1296,0.1327,0.1359,0.1363,0.1366,0.1406,0.1415,0.1422,0,0,0,0,0,0,0.1058,0.1087,0.1101,0.1128,0.1152,0.1168,0.1189,0.1205,0.1238,0.1253,0.1261,0.1268,0.1318,0.1317,0.1296,0.1363,0.1335,0.134,0.1365,0.1373,0.1379,0.1388,0.1279,0,0,0,0,0,0.1064,0.1087,0.1111,0.1137,0.1148,0.1172,0.119,0.1211,0.1238,0.1254,0.1276,0.1304,0.1329,0.1349,0.1368,0.1401,0.1409,0.1425,0.1432,0.1437,0.1448,0.149,0.1501,0.138,0.138,0.138,0,0,0.1068,0.1091,0.1103,0.1138,0.1157,0.1178,0.1186,0.1222,0.1252,0.1255,0.1308,0.1328,0.1344,0.1387,0.1409,0.1394,0.1476,0.1442,0.1447,0.1455,0.1495,0.1507,0.1517,0.1382,0.1382,0.1382,0,0,0.1079,0.1108,0.1125,0.1148,0.1189,0.1204,0.1221,0.1255,0.1283,0.1327,0.1345,0.1387,0.1419,0.1442,0.1454,0.1509,0.151,0.1521,0.1562,0.1603,0.1613,0.1622,0.1644,0.1655,0.1524,0.1524,0.1524,0,0.1083,0.1111,0.1135,0.1158,0.1182,0.1218,0.1241,0.1271,0.1321,0.1351,0.1353,0.1432,0.1442,0.1501,0.1524,0.1523,0.1546,0.1527,0.1611,0.162,0.1629,0.1649,0.1661,0.1527,0.1527,0.1526,0.1526,0,0.1099,0.1131,0.1145,0.1185,0.1212,0.1244,0.1283,0.1326,0.1363,0.1394,0.147,0.1494,0.1543,0.1553,0.1555,0.163,0.1627,0.1613,0.1588,0.1644,0.1662,0.1673,0.1531,0.153,0.1529,0.1528,0,0,0.1075,0.1142,0.1148,0.1174,0.1233,0.1253,0.1312,0.1368,0.1416,0.1471,0.1533,0.1584,0.1616,0.1633,0.1652,0.1689,0.176,0.1686,0.1687,0.1704,0.1853,0.1766,0.1769,0.1772,0.1774,0.1776,0.184,0,0.1081,0.1123,0.1161,0.1209,0.123,0.1288,0.1334,0.1397,0.1454,0.1523,0.1577,0.1644,0.1642,0.1683,0.1721,0.1752,0.1793,0.1744,0.1801,0.1803,0.1715,0.178,0.1783,0.1848,0.185,0.1852,0.1853,0,0.1072,0.1108,0.1153,0.1223,0.1238,0.1281,0.1368,0.142,0.1523,0.157,0.1654,0.1704,0.1787,0.177,0.186,0.1836,0.1858,0.1871,0.1874,0.1785,0.1736,0.1783,0.1873,0.1871,0.187,0.1869,0.1867,0,0.1027,0.1097,0.1136,0.1161,0.1245,0.1291,0.1347,0.1442,0.1492,0.1623,0.1678,0.1775,0.1843,0.1887,0.1928,0.191,0.2011,0.1978,0.1921,0.1914,0.195,0.194,0.2047,0.2047,0.2047,0.2047,0.2047,0,0.1003,0.1034,0.1127,0.115,0.1209,0.1278,0.1358,0.1427,0.1529,0.1605,0.1714,0.1787,0.1883,0.1951,0.1962,0.1977,0.2041,0.1945,0.1934,0.1967,0.1958,0.1957,0.1946,0.2049,0.2049,0.2048,0.2048,0,0.0939,0.1001,0.1053,0.1155,0.119,0.1237,0.1354,0.1404,0.1519,0.1625,0.1677,0.1818,0.1924,0.1991,0.2071,0.2018,0.2035,0.2025,0.2064,0.2052,0.19,0.1891,0.1961,0.1958,0.1957,0.1955,0.1953,0,0.0907,0.0929,0.1043,0.1082,0.1138,0.1222,0.1273,0.1388,0.1448,0.1634,0.1675,0.1835,0.1927,0.1955,0.2031,0.2057,0.2039,0.2019,0.1954,0.1913,0.1896,0.189,0.1883,0.195,0.195,0.1949,0.1949,0,0.085,0.0903,0.0949,0.1031,0.1099,0.1159,0.1255,0.1281,0.143,0.1546,0.1651,0.1728,0.1852,0.1913,0.196,0.1967,0.2009,0.1998,0.2001,0.194,0.1901,0.1885,0.1881,0.1942,0.1943,0.1944,0.1944,0,0.0808,0.0827,0.0902,0.0966,0.1046,0.1089,0.1143,0.1227,0.1294,0.1497,0.1534,0.1706,0.1841,0.1871,0.1904,0.1919,0.1892,0.1809,0.1821,0.183,0.1759,0.1689,0.1672,0,0,0,0,0,0.076,0.0779,0.0831,0.0904,0.098,0.1027,0.1126,0.1183,0.1332,0.137,0.1446,0.156,0.1657,0.1733,0.1726,0.1852,0.1891,0.1834,0.1798,0.1904,0.1912,0.1843,0,0,0,0,0,0,0.0732,0.0773,0.0801,0.0842,0.0879,0.0949,0.1006,0.1098,0.1126,0.1286,0.1344,0.147,0.1579,0.1655,0.17,0.1723,0.1669,0.1934,0.193,0.1899,0.1907,0.1913,0.1845,0,0,0,0,0]},{"header":{"parameterUnit":"m.s-1","parameterCategory":2,"la1":30.2991,"la2":30.254,"lo1":-89.0895,"lo2":-89.0444,"dy":0.0017,"dx":0.0017,"nx":28,"ny":28,"refTime":"2023-10-29T09:00:00:Z","depth":"4","parameterNumber":3,"parameterNumberName":"V-component_of_CURRENTS"},"data":[0,0,0,0,0,0,0,0,0,0,0,0,0,0,0,0,0,0,0,0,0,0,0,0,0,0,0,0,0,0,0,0,0,0,0,0,0,0,0,0,0,0,0,0,0,0,0,0,0,0,0,0,0,0,0,0,0,0,0.0401,0.0401,0,0.0379,0.0379,0.0379,0.0374,0.0374,0.0374,0.0374,0.0315,0.0313,0.0311,0,0,0,0,0,0,0,0,0,0,0,0,0,0.0395,0.0396,0.0401,0.0401,0.04,0.0379,0.0379,0.0379,0.0374,0.0374,0.0374,0.0374,0.0315,0.0313,0.0311,0,0,0,0,0,0,0,0,0,0,0,0,0,0.0388,0.0396,0.0401,0.0396,0.0395,0.0379,0.0379,0.0379,0.0374,0.0374,0.0374,0.0374,0.0316,0.0313,0.0311,0.029,0,0,0.0303,0.0302,0,0,0,0,0,0,0,0,0.0388,0.0388,0.0397,0.0396,0.0395,0.038,0.0355,0.0347,0.0374,0.0382,0.0374,0.0375,0.0333,0.0329,0.0325,0.0287,0.0284,0.0303,0.0301,0.03,0.0299,0,0,0,0,0,0,0,0.0389,0.0389,0.0392,0.0396,0.0395,0.0379,0.0379,0.0354,0.0355,0.0381,0.038,0.0378,0.0332,0.0327,0.0323,0.0284,0.0303,0.03,0.0299,0.0298,0.0242,0.0242,0,0,0,0,0,0,0.0394,0.039,0.0393,0.0392,0.0392,0.038,0.0379,0.0384,0.0356,0.0353,0.0378,0.0378,0.0331,0.0326,0.0321,0.0325,0.03,0.0298,0.0296,0.0241,0.0242,0.0242,0,0,0,0,0,0,0.0394,0.0395,0.0394,0.039,0.0388,0.038,0.0385,0.0384,0.0385,0.0355,0.035,0.0382,0.0331,0.0324,0.0305,0.0322,0.0296,0.0294,0.0241,0.0241,0.0242,0.0314,0,0,0,0,0,0,0.0394,0.0395,0.0403,0.039,0.0389,0.0391,0.0385,0.0383,0.0383,0.0383,0.0356,0.0351,0.0331,0.0309,0.0303,0.0318,0.0292,0.0241,0.0241,0.0242,0.0312,0.0317,0.0321,0,0,0,0,0,0.0394,0.0405,0.0404,0.0404,0.04,0.0392,0.039,0.0383,0.0383,0.0386,0.0368,0.0352,0.0306,0.0307,0.0299,0.0314,0.0241,0.0241,0.0242,0.031,0.0316,0.0321,0,0,0,0,0,0,0.0402,0.0405,0.0404,0.0414,0.0406,0.0391,0.0395,0.0388,0.0377,0.0379,0.035,0.0343,0.0333,0.0308,0.0311,0.0296,0.0271,0.027,0.0326,0.0331,0.0336,0.0349,0.029,0,0,0,0,0,0.0409,0.0421,0.0413,0.042,0.0421,0.0409,0.0406,0.0402,0.0388,0.0385,0.0366,0.0344,0.0325,0.0317,0.0293,0.0284,0.025,0.0287,0.0292,0.0296,0.03,0.0267,0.027,0.0242,0.0242,0.0242,0,0,0.0413,0.0416,0.0423,0.0423,0.0419,0.0426,0.0408,0.041,0.0419,0.0378,0.0385,0.0357,0.0324,0.0318,0.0311,0.0302,0.0284,0.0297,0.0301,0.0302,0.0268,0.027,0.0273,0.0242,0.0242,0.0242,0,0,0.0428,0.0433,0.045,0.0448,0.0447,0.0442,0.0445,0.0435,0.0437,0.043,0.0409,0.0393,0.036,0.0349,0.0336,0.0348,0.0307,0.034,0.038,0.0348,0.035,0.0352,0.0305,0.0302,0.0347,0.0347,0.0347,0,0.0434,0.0456,0.045,0.0463,0.047,0.0453,0.047,0.0467,0.0453,0.0454,0.044,0.0403,0.0377,0.0375,0.0382,0.0362,0.0329,0.0366,0.0356,0.0357,0.0357,0.0309,0.0304,0.035,0.035,0.035,0.0349,0,0.0458,0.0479,0.0488,0.0506,0.0509,0.052,0.0517,0.0522,0.0517,0.0506,0.0499,0.0464,0.0442,0.0434,0.0412,0.0409,0.0379,0.0365,0.0347,0.0365,0.0312,0.0306,0.0355,0.0354,0.0353,0.0352,0,0,0.0465,0.0502,0.0507,0.0528,0.0537,0.0543,0.0563,0.0571,0.0586,0.0565,0.0573,0.0545,0.052,0.0504,0.0477,0.0455,0.0428,0.0418,0.0414,0.038,0.0344,0.0274,0.026,0.0414,0.0413,0.0413,0.0304,0,0.0489,0.0532,0.0543,0.0583,0.0606,0.0606,0.0627,0.063,0.0623,0.0623,0.0592,0.0581,0.055,0.0541,0.0516,0.0448,0.0417,0.0458,0.0323,0.0319,0.0263,0.0253,0.0412,0.0299,0.0298,0.0297,0.0296,0,0.0511,0.0539,0.0589,0.0635,0.0646,0.0667,0.0698,0.0715,0.0709,0.07,0.0681,0.0644,0.0613,0.058,0.0482,0.0508,0.0432,0.0378,0.0372,0.0278,0.0238,0.0277,0.0285,0.0286,0.0286,0.0287,0.0288,0,0.0521,0.0574,0.0621,0.0633,0.0677,0.0704,0.0729,0.0738,0.0754,0.0747,0.0738,0.0694,0.0661,0.0579,0.0455,0.0469,0.0327,0.0331,0.0195,0.0188,0.0254,0.0254,0.0255,0.0255,0.0256,0.0256,0.0256,0,0.054,0.0577,0.0634,0.0655,0.0711,0.0734,0.0783,0.0796,0.0808,0.0819,0.078,0.0758,0.0658,0.056,0.046,0.0295,0.0324,0.0193,0.0156,0.0285,0.0289,0.0249,0.025,0.0252,0.0253,0.0254,0.0254,0,0.054,0.0579,0.0632,0.0693,0.0717,0.0757,0.0818,0.0844,0.0856,0.0865,0.0862,0.0792,0.0662,0.0535,0.0379,0.0287,0.0149,0.008,0.0208,0.0182,0.0032,0.0038,-0.0066,-0.007,-0.0073,-0.0075,-0.0077,0,0.0543,0.0573,0.0653,0.0688,0.072,0.0783,0.0824,0.0863,0.0886,0.0877,0.0873,0.0759,0.069,0.0419,0.0288,0.0072,0.0043,-0.0029,0.0025,0.0025,-0.0,0.001,0.0019,-0.0082,-0.0082,-0.0083,-0.0084,0,0.0539,0.0574,0.0616,0.0688,0.0742,0.0806,0.0866,0.0883,0.0919,0.0925,0.086,0.073,0.0567,0.0387,0.02,0.0056,0.0026,-0.0059,-0.0053,-0.0003,0.0005,-0.0015,-0.0002,-0.0094,-0.0092,-0.0092,-0.0091,0,0.0531,0.0558,0.0615,0.0677,0.0747,0.0807,0.0847,0.0869,0.0891,0.0887,0.0855,0.0705,0.0627,0.0374,0.021,0.0047,0.0022,-0.0006,-0.0002,0.0007,0.0059,0.0083,-0.0031,0,0,0,0,0,0.0513,0.0541,0.0599,0.0665,0.0736,0.0783,0.0861,0.0896,0.0928,0.088,0.0872,0.0722,0.047,0.0368,0.0191,0.0153,-0.001,-0.006,-0.0041,-0.0149,-0.0138,-0.0095,0,0,0,0,0,0,0.0498,0.0547,0.0583,0.0643,0.0689,0.0766,0.0823,0.0853,0.0832,0.0842,0.0711,0.0664,0.042,0.056,0.0179,0.0131,0.0117,-0.0169,-0.0173,-0.0156,-0.0145,-0.0136,-0.0088,0,0,0,0,0]}]]